| time (UTC) | temp F | wind direction | speed knots | gust knots | rain 1hr in | rain 24hr in | rain mn in | humidity % | barometer mb |
| 20260906025037 | 74 | 355 | 0.9 | 3.5 | 0.00 | 0.00 | 0.00 | 72 | 1010.0 |
| 20260906024538 | 74 | 355 | 1.7 | 4.3 | 0.00 | 0.00 | 0.00 | 72 | 1010.0 |
| 20260906024037 | 74 | 5 | 1.7 | 4.3 | 0.00 | 0.00 | 0.00 | 72 | 1010.1 |
| 20260906023540 | 74 | 355 | 0.9 | 3.5 | 0.00 | 0.00 | 0.00 | 72 | 1010.1 |
| 20260906022537 | 74 | 348 | 0.9 | 2.6 | 0.00 | 0.00 | 0.00 | 71 | 1010.1 |
| 20260906022037 | 74 | 348 | 0.0 | 2.6 | 0.00 | 0.00 | 0.00 | 70 | 1010.0 |
| 20260906021536 | 75 | 348 | 1.7 | 2.6 | 0.00 | 0.00 | 0.00 | 69 | 1010.0 |
| 20260906021036 | 75 | 348 | 1.7 | 2.6 | 0.00 | 0.00 | 0.00 | 69 | 1009.9 |
| 20260906020536 | 76 | 348 | 1.7 | 2.6 | 0.00 | 0.00 | 0.00 | 68 | 1009.9 |
| 20260906020035 | 76 | 348 | 1.7 | 2.6 | 0.00 | 0.00 | 0.00 | 68 | 1009.7 |
| 20260906015534 | 77 | 348 | 0.0 | 3.5 | 0.00 | 0.00 | 0.00 | 67 | 1009.7 |
| 20260906015033 | 77 | 347 | 0.9 | 3.5 | 0.00 | 0.00 | 0.00 | 67 | 1009.6 |
| 20260906014534 | 78 | 331 | 0.9 | 3.5 | 0.00 | 0.00 | 0.00 | 66 | 1009.3 |
| 20260906014032 | 78 | 350 | 0.9 | 3.5 | 0.00 | 0.00 | 0.00 | 65 | 1009.3 |
| 20260906013532 | 79 | 355 | 1.7 | 5.2 | 0.00 | 0.00 | 0.00 | 65 | 1009.2 |
| 20260906012525 | 80 | 5 | 3.5 | 7.8 | 0.00 | 0.00 | 0.00 | 64 | 1009.0 |
| 20260906012025 | 80 | 360 | 2.6 | 7.8 | 0.00 | 0.00 | 0.00 | 63 | 1009.0 |
| 20260906011525 | 81 | 30 | 3.5 | 7.0 | 0.00 | 0.00 | 0.00 | 62 | 1008.9 |
| 20260906011026 | 81 | 49 | 1.7 | 7.0 | 0.00 | 0.00 | 0.00 | 62 | 1008.8 |
| 20260906010525 | 81 | 16 | 2.6 | 7.0 | 0.00 | 0.00 | 0.00 | 61 | 1008.8 |
| 20260906010024 | 82 | 47 | 2.6 | 7.8 | 0.00 | 0.00 | 0.00 | 61 | 1008.7 |
| 20260906005529 | 82 | 24 | 4.3 | 7.8 | 0.00 | 0.00 | 0.00 | 60 | 1008.6 |
| 20260906005024 | 83 | 57 | 2.6 | 8.7 | 0.00 | 0.00 | 0.00 | 60 | 1008.4 |
| 20260906004524 | 83 | 32 | 4.3 | 11.3 | 0.00 | 0.00 | 0.00 | 60 | 1008.5 |
| 20260906004025 | 83 | 55 | 3.5 | 11.3 | 0.00 | 0.00 | 0.00 | 59 | 1008.4 |
| 20260906003526 | 84 | 50 | 4.3 | 8.7 | 0.00 | 0.00 | 0.00 | 59 | 1008.2 |
| 20260906002529 | 84 | 28 | 3.5 | 9.6 | 0.00 | 0.00 | 0.00 | 58 | 1008.2 |
| 20260906002030 | 84 | 53 | 4.3 | 9.6 | 0.00 | 0.00 | 0.00 | 58 | 1008.1 |
| 20260906001527 | 85 | 54 | 3.5 | 9.6 | 0.00 | 0.00 | 0.00 | 58 | 1008.1 |
| 20260906001027 | 85 | 51 | 4.3 | 12.2 | 0.00 | 0.00 | 0.00 | 58 | 1008.0 |
| 20260906000526 | 85 | 55 | 6.1 | 12.2 | 0.00 | 0.00 | 0.00 | 57 | 1008.0 |
| 20260906000030 | 86 | 49 | 5.2 | 11.3 | 0.00 | 0.00 | 0.00 | 57 | 1008.1 |
| 20260905235526 | 86 | 41 | 5.2 | 11.3 | 0.00 | 0.00 | 0.00 | 56 | 1008.0 |
| 20260905235026 | 86 | 44 | 3.5 | 10.4 | 0.00 | 0.00 | 0.00 | 56 | 1007.9 |
| 20260905234525 | 86 | 36 | 3.5 | 10.4 | 0.00 | 0.00 | 0.00 | 56 | 1008.0 |
| 20260905234026 | 86 | 50 | 4.3 | 9.6 | 0.00 | 0.00 | 0.00 | 56 | 1007.7 |
| 20260905233526 | 87 | 53 | 3.5 | 9.6 | 0.00 | 0.00 | 0.00 | 56 | 1007.8 |
| 20260905232522 | 87 | 50 | 5.2 | 9.6 | 0.00 | 0.00 | 0.00 | 55 | 1007.6 |
| 20260905232021 | 87 | 51 | 3.5 | 9.6 | 0.00 | 0.00 | 0.00 | 54 | 1007.7 |
| 20260905231521 | 88 | 48 | 5.2 | 10.4 | 0.00 | 0.00 | 0.00 | 54 | 1007.7 |
| 20260905231020 | 88 | 49 | 3.5 | 10.4 | 0.00 | 0.00 | 0.00 | 54 | 1007.6 |
| 20260905230519 | 88 | 44 | 3.5 | 8.7 | 0.00 | 0.00 | 0.00 | 54 | 1007.6 |
| 20260905230019 | 88 | 62 | 2.6 | 7.8 | 0.00 | 0.00 | 0.00 | 54 | 1007.7 |
| 20260905225520 | 88 | 53 | 2.6 | 9.6 | 0.00 | 0.00 | 0.00 | 54 | 1007.6 |
| 20260905225018 | 88 | 53 | 2.6 | 9.6 | 0.00 | 0.00 | 0.00 | 54 | 1007.5 |
| 20260905224519 | 88 | 46 | 2.6 | 9.6 | 0.00 | 0.00 | 0.00 | 53 | 1007.5 |
| 20260905224019 | 89 | 47 | 2.6 | 9.6 | 0.00 | 0.00 | 0.00 | 53 | 1007.4 |
| 20260905223519 | 89 | 48 | 3.5 | 8.7 | 0.00 | 0.00 | 0.00 | 53 | 1007.3 |
| 20260905222521 | 89 | 57 | 2.6 | 8.7 | 0.00 | 0.00 | 0.00 | 53 | 1007.4 |
| 20260905222020 | 89 | 42 | 4.3 | 8.7 | 0.00 | 0.00 | 0.00 | 52 | 1007.5 |
| 20260905221522 | 89 | 32 | 4.3 | 8.7 | 0.00 | 0.00 | 0.00 | 52 | 1007.5 |
| 20260905221021 | 90 | 34 | 4.3 | 9.6 | 0.00 | 0.00 | 0.00 | 51 | 1007.6 |
| 20260905220522 | 89 | 32 | 4.3 | 9.6 | 0.00 | 0.00 | 0.00 | 49 | 1007.5 |
| 20260905220019 | 90 | 5 | 4.3 | 8.7 | 0.00 | 0.00 | 0.00 | 49 | 1007.6 |
| 20260905215519 | 90 | 24 | 3.5 | 7.8 | 0.00 | 0.00 | 0.00 | 49 | 1007.7 |
| 20260905215018 | 89 | 31 | 3.5 | 7.8 | 0.00 | 0.00 | 0.00 | 49 | 1007.6 |
| 20260905214519 | 90 | 23 | 2.6 | 7.8 | 0.00 | 0.00 | 0.00 | 48 | 1007.5 |
| 20260905214018 | 90 | 19 | 5.2 | 7.8 | 0.00 | 0.00 | 0.00 | 48 | 1007.6 |
| 20260905213518 | 90 | 5 | 3.5 | 7.0 | 0.00 | 0.00 | 0.00 | 48 | 1007.7 |
| 20260905212519 | 89 | 24 | 2.6 | 5.2 | 0.00 | 0.00 | 0.00 | 49 | 1007.4 |
| 20260905212023 | 89 | 21 | 2.6 | 7.8 | 0.00 | 0.00 | 0.00 | 49 | 1007.6 |
| 20260905211516 | 89 | 26 | 2.6 | 9.6 | 0.00 | 0.00 | 0.00 | 50 | 1007.6 |
| 20260905211017 | 89 | 24 | 4.3 | 9.6 | 0.00 | 0.00 | 0.00 | 50 | 1007.7 |
| 20260905210519 | 89 | 19 | 0.9 | 7.8 | 0.00 | 0.00 | 0.00 | 51 | 1007.6 |
| 20260905210014 | 89 | 19 | 5.2 | 7.8 | 0.00 | 0.00 | 0.00 | 51 | 1007.7 |
| 20260905205514 | 89 | 10 | 0.9 | 8.7 | 0.00 | 0.00 | 0.00 | 51 | 1007.7 |
| 20260905205015 | 88 | 10 | 4.3 | 8.7 | 0.00 | 0.00 | 0.00 | 51 | 1007.8 |
| 20260905204514 | 88 | 10 | 2.6 | 7.8 | 0.00 | 0.00 | 0.00 | 51 | 1007.8 |
| 20260905204012 | 88 | 41 | 2.6 | 7.8 | 0.00 | 0.00 | 0.00 | 52 | 1007.8 |
| 20260905203511 | 88 | 43 | 1.7 | 5.2 | 0.00 | 0.00 | 0.00 | 52 | 1007.8 |
| 20260905202509 | 87 | 16 | 0.9 | 7.0 | 0.00 | 0.00 | 0.00 | 53 | 1007.8 |
| 20260905202011 | 87 | 11 | 2.6 | 8.7 | 0.00 | 0.00 | 0.00 | 53 | 1008.0 |
| 20260905201509 | 87 | 5 | 4.3 | 10.4 | 0.00 | 0.00 | 0.00 | 53 | 1008.1 |
| 20260905201008 | 88 | 13 | 3.5 | 10.4 | 0.00 | 0.00 | 0.00 | 53 | 1008.0 |
| 20260905200509 | 87 | 300 | 1.7 | 7.8 | 0.00 | 0.00 | 0.00 | 54 | 1008.0 |
| 20260905200008 | 86 | 299 | 1.7 | 7.8 | 0.00 | 0.00 | 0.00 | 54 | 1008.0 |
| 20260905195506 | 86 | 24 | 0.9 | 7.0 | 0.00 | 0.00 | 0.00 | 55 | 1007.9 |
| 20260905195006 | 86 | 32 | 3.5 | 7.0 | 0.00 | 0.00 | 0.00 | 55 | 1008.0 |
| 20260905194508 | 86 | 34 | 2.6 | 5.2 | 0.00 | 0.00 | 0.00 | 55 | 1008.0 |
| 20260905194005 | 86 | 43 | 1.7 | 7.0 | 0.00 | 0.00 | 0.00 | 56 | 1008.1 |
| 20260905193503 | 86 | 40 | 2.6 | 8.7 | 0.00 | 0.00 | 0.00 | 56 | 1008.0 |
| 20260905192600 | 86 | 28 | 5.2 | 8.7 | 0.00 | 0.00 | 0.00 | 56 | 1008.1 |
| 20260905192102 | 85 | 23 | 1.7 | 7.0 | 0.00 | 0.00 | 0.00 | 56 | 1008.3 |
| 20260905191613 | 85 | 27 | 1.7 | 7.0 | 0.00 | 0.00 | 0.00 | 56 | 1008.3 |
| 20260905191501 | 85 | 27 | 2.6 | 7.0 | 0.00 | 0.00 | 0.00 | 56 | 1008.3 |
| 20260905191101 | 85 | 28 | 0.9 | 7.8 | 0.00 | 0.00 | 0.00 | 57 | 1008.2 |
| 20260905190601 | 85 | 28 | 0.9 | 7.8 | 0.00 | 0.00 | 0.00 | 56 | 1008.2 |
| 20260905190056 | 85 | 34 | 2.6 | 7.8 | 0.00 | 0.00 | 0.00 | 57 | 1008.2 |
| 20260905185558 | 84 | 34 | 2.6 | 7.8 | 0.00 | 0.00 | 0.00 | 58 | 1008.2 |
| 20260905185056 | 84 | 28 | 3.5 | 7.0 | 0.00 | 0.00 | 0.00 | 57 | 1008.2 |
| 20260905184608 | 84 | 51 | 1.7 | 5.2 | 0.00 | 0.00 | 0.00 | 58 | 1008.2 |
| 20260905184054 | 84 | 55 | 3.5 | 5.2 | 0.00 | 0.00 | 0.00 | 59 | 1008.3 |
| 20260905183553 | 83 | 49 | 2.6 | 6.1 | 0.00 | 0.00 | 0.00 | 59 | 1008.3 |
| 20260905182555 | 82 | 51 | 0.0 | 5.2 | 0.00 | 0.00 | 0.00 | 61 | 1008.2 |
| 20260905182055 | 82 | 51 | 2.6 | 5.2 | 0.00 | 0.00 | 0.00 | 61 | 1008.4 |
| 20260905181550 | 82 | 52 | 0.9 | 6.1 | 0.00 | 0.00 | 0.00 | 62 | 1008.1 |
| 20260905181049 | 82 | 52 | 0.9 | 8.7 | 0.00 | 0.00 | 0.00 | 62 | 1008.3 |
| 20260905180547 | 81 | 39 | 2.6 | 9.6 | 0.00 | 0.00 | 0.00 | 63 | 1008.2 |
| 20260905180051 | 81 | 39 | 4.3 | 9.6 | 0.00 | 0.00 | 0.00 | 63 | 1008.4 |
| 20260905175547 | 81 | 76 | 3.5 | 7.8 | 0.00 | 0.00 | 0.00 | 63 | 1008.4 |
| 20260905175046 | 81 | 99 | 2.6 | 7.0 | 0.00 | 0.00 | 0.00 | 63 | 1008.4 |
| 20260905174550 | 81 | 94 | 3.5 | 7.0 | 0.00 | 0.00 | 0.00 | 63 | 1008.5 |
| 20260905174045 | 80 | 12 | 1.7 | 4.3 | 0.00 | 0.00 | 0.00 | 64 | 1008.5 |
| 20260905173544 | 80 | 9 | 0.9 | 7.8 | 0.00 | 0.00 | 0.00 | 65 | 1008.5 |
| 20260905172547 | 80 | 333 | 1.7 | 7.0 | 0.00 | 0.00 | 0.00 | 65 | 1008.6 |
| 20260905172043 | 80 | 296 | 2.6 | 7.0 | 0.00 | 0.00 | 0.00 | 65 | 1008.7 |
| 20260905171543 | 80 | 306 | 2.6 | 7.0 | 0.00 | 0.00 | 0.00 | 66 | 1008.9 |
| 20260905171042 | 79 | 259 | 1.7 | 7.0 | 0.00 | 0.00 | 0.00 | 66 | 1008.9 |
| 20260905170540 | 79 | 248 | 2.6 | 7.0 | 0.00 | 0.00 | 0.00 | 66 | 1008.8 |
| 20260905170040 | 79 | 239 | 0.9 | 7.0 | 0.00 | 0.00 | 0.00 | 67 | 1008.9 |
| 20260905165540 | 78 | 238 | 0.0 | 7.0 | 0.00 | 0.00 | 0.00 | 67 | 1008.9 |
| 20260905165038 | 78 | 244 | 2.6 | 6.1 | 0.00 | 0.00 | 0.00 | 67 | 1009.0 |
| 20260905164537 | 78 | 126 | 0.9 | 4.3 | 0.00 | 0.00 | 0.00 | 67 | 1008.8 |
| 20260905164036 | 78 | 126 | 0.9 | 6.1 | 0.00 | 0.00 | 0.00 | 67 | 1008.7 |
| 20260905163535 | 78 | 128 | 1.7 | 6.1 | 0.00 | 0.00 | 0.00 | 68 | 1008.5 |
| 20260905162539 | 77 | 129 | 2.6 | 7.0 | 0.00 | 0.00 | 0.00 | 70 | 1008.1 |
| 20260905162038 | 76 | 130 | 3.5 | 7.0 | 0.00 | 0.00 | 0.00 | 71 | 1008.0 |
| 20260905161536 | 76 | 133 | 4.3 | 7.8 | 0.00 | 0.00 | 0.00 | 71 | 1007.9 |
| 20260905161036 | 76 | 135 | 3.5 | 7.8 | 0.00 | 0.00 | 0.00 | 71 | 1008.1 |
| 20260905160533 | 76 | 112 | 2.6 | 6.1 | 0.00 | 0.00 | 0.00 | 72 | 1008.1 |
| 20260905160046 | 76 | 112 | 2.6 | 5.2 | 0.00 | 0.00 | 0.00 | 71 | 1007.9 |
| 20260905155531 | 75 | 111 | 0.9 | 5.2 | 0.00 | 0.00 | 0.00 | 73 | 1008.0 |
| 20260905155031 | 75 | 122 | 2.6 | 5.2 | 0.00 | 0.00 | 0.00 | 73 | 1008.0 |
| 20260905154529 | 75 | 87 | 1.7 | 7.0 | 0.00 | 0.00 | 0.00 | 73 | 1008.0 |
| 20260905154029 | 74 | 67 | 1.7 | 7.0 | 0.00 | 0.00 | 0.00 | 75 | 1007.9 |
| 20260905153526 | 73 | 116 | 3.5 | 7.0 | 0.00 | 0.00 | 0.00 | 76 | 1007.8 |
| 20260905152523 | 73 | 95 | 2.6 | 6.1 | 0.00 | 0.00 | 0.00 | 76 | 1008.1 |
| 20260905152025 | 73 | 94 | 0.9 | 5.2 | 0.00 | 0.00 | 0.00 | 76 | 1007.9 |
| 20260905151521 | 72 | 91 | 1.7 | 6.1 | 0.00 | 0.00 | 0.00 | 77 | 1008.1 |
| 20260905151024 | 72 | 103 | 2.6 | 6.1 | 0.00 | 0.00 | 0.00 | 78 | 1008.2 |
| 20260905150519 | 72 | 109 | 2.6 | 6.1 | 0.00 | 0.00 | 0.00 | 78 | 1008.3 |
| 20260905150024 | 71 | 111 | 3.5 | 6.1 | 0.00 | 0.00 | 0.00 | 78 | 1008.2 |
| 20260905145519 | 71 | 101 | 1.7 | 6.1 | 0.00 | 0.00 | 0.00 | 79 | 1008.2 |
| 20260905145016 | 71 | 105 | 1.7 | 6.1 | 0.00 | 0.00 | 0.00 | 80 | 1008.1 |
| 20260905144537 | 70 | 108 | 1.7 | 5.2 | 0.00 | 0.00 | 0.00 | 81 | 1008.1 |
| 20260905144019 | 70 | 49 | 2.6 | 7.8 | 0.00 | 0.00 | 0.00 | 81 | 1008.0 |
| 20260905143516 | 70 | 86 | 1.7 | 7.8 | 0.00 | 0.00 | 0.00 | 81 | 1008.1 |
| 20260905142513 | 69 | 46 | 3.5 | 7.8 | 0.00 | 0.00 | 0.00 | 82 | 1007.8 |
| 20260905142015 | 69 | 36 | 3.5 | 7.8 | 0.00 | 0.00 | 0.00 | 83 | 1007.8 |
| 20260905141520 | 68 | 55 | 4.3 | 7.8 | 0.00 | 0.00 | 0.00 | 83 | 1007.9 |
| 20260905141016 | 68 | 32 | 3.5 | 7.8 | 0.00 | 0.00 | 0.00 | 84 | 1008.0 |
| 20260905140513 | 68 | 41 | 4.3 | 7.8 | 0.00 | 0.00 | 0.00 | 84 | 1007.9 |
| 20260905140012 | 67 | 5 | 3.5 | 7.8 | 0.00 | 0.00 | 0.00 | 84 | 1007.9 |
| 20260905135512 | 67 | 46 | 2.6 | 7.8 | 0.00 | 0.00 | 0.00 | 84 | 1007.8 |
| 20260905135012 | 67 | 53 | 3.5 | 7.8 | 0.00 | 0.00 | 0.00 | 85 | 1007.8 |
| 20260905134516 | 66 | 42 | 2.6 | 7.8 | 0.00 | 0.00 | 0.00 | 85 | 1008.0 |
| 20260905134011 | 65 | 36 | 2.6 | 7.0 | 0.00 | 0.00 | 0.00 | 85 | 1007.9 |
| 20260905133512 | 65 | 37 | 2.6 | 6.1 | 0.00 | 0.00 | 0.00 | 85 | 1008.0 |
| 20260905132515 | 64 | 42 | 0.0 | 1.7 | 0.00 | 0.00 | 0.00 | 86 | 1007.7 |
| 20260905132009 | 63 | 49 | 0.0 | 1.7 | 0.00 | 0.00 | 0.00 | 87 | 1007.7 |
| 20260905131510 | 62 | 51 | 0.0 | 1.7 | 0.00 | 0.00 | 0.00 | 89 | 1007.7 |
| 20260905131010 | 62 | 51 | 0.0 | 1.7 | 0.00 | 0.00 | 0.00 | 90 | 1007.6 |
| 20260905130508 | 61 | 51 | 0.0 | 0.9 | 0.00 | 0.00 | 0.00 | 90 | 1007.5 |
| 20260905130008 | 61 | 50 | 0.0 | 1.7 | 0.00 | 0.00 | 0.00 | 90 | 1007.3 |
| 20260905125507 | 61 | 50 | 0.0 | 2.6 | 0.00 | 0.00 | 0.00 | 90 | 1007.1 |
| 20260905125007 | 61 | 50 | 0.9 | 2.6 | 0.00 | 0.00 | 0.00 | 89 | 1006.8 |
| 20260905124506 | 61 | 51 | 0.9 | 2.6 | 0.00 | 0.00 | 0.00 | 88 | 1006.7 |
| 20260905124004 | 61 | 51 | 0.0 | 1.7 | 0.00 | 0.00 | 0.00 | 89 | 1006.9 |
| 20260905123504 | 61 | 51 | 0.0 | 1.7 | 0.00 | 0.00 | 0.00 | 89 | 1006.6 |
| 20260905122506 | 61 | 51 | 0.9 | 2.6 | 0.00 | 0.00 | 0.00 | 89 | 1006.5 |
| 20260905122002 | 61 | 51 | 0.0 | 2.6 | 0.00 | 0.00 | 0.00 | 89 | 1006.3 |
| 20260905121501 | 62 | 51 | 0.0 | 2.6 | 0.00 | 0.00 | 0.00 | 89 | 1006.2 |
| 20260905121002 | 62 | 71 | 0.0 | 0.0 | 0.00 | 0.00 | 0.00 | 89 | 1006.2 |
| 20260905120559 | 62 | 72 | 0.0 | 0.0 | 0.00 | 0.00 | 0.00 | 89 | 1006.2 |
| 20260905120100 | 62 | 72 | 0.0 | 0.0 | 0.00 | 0.00 | 0.00 | 89 | 1006.1 |
| 20260905115601 | 62 | 72 | 0.0 | 0.0 | 0.00 | 0.00 | 0.00 | 89 | 1006.1 |
| 20260905115100 | 62 | 72 | 0.0 | 0.0 | 0.00 | 0.00 | 0.00 | 89 | 1005.9 |
| 20260905114627 | 62 | 72 | 0.0 | 0.9 | 0.00 | 0.00 | 0.00 | 88 | 1005.7 |
| 20260905114057 | 62 | 72 | 0.0 | 0.9 | 0.00 | 0.00 | 0.00 | 89 | 1005.8 |
| 20260905113556 | 62 | 72 | 0.0 | 1.7 | 0.00 | 0.00 | 0.00 | 88 | 1005.7 |
| 20260905113156 | 63 | 73 | 0.0 | 1.7 | 0.00 | 0.00 | 0.00 | 88 | 1005.7 |
| 20260905112556 | 63 | 73 | 0.0 | 1.7 | 0.00 | 0.00 | 0.00 | 88 | 1005.8 |
| 20260905112054 | 63 | 73 | 0.0 | 1.7 | 0.00 | 0.00 | 0.00 | 87 | 1005.7 |
| 20260905111555 | 63 | 73 | 0.0 | 1.7 | 0.00 | 0.00 | 0.00 | 86 | 1005.6 |
| 20260905111055 | 63 | 73 | 0.0 | 1.7 | 0.00 | 0.00 | 0.00 | 86 | 1005.5 |
| 20260905110552 | 64 | 73 | 0.0 | 1.7 | 0.00 | 0.00 | 0.00 | 86 | 1005.5 |
| 20260905110052 | 64 | 73 | 0.0 | 0.9 | 0.00 | 0.00 | 0.00 | 86 | 1005.3 |
| 20260905105552 | 64 | 73 | 0.0 | 2.6 | 0.00 | 0.00 | 0.00 | 86 | 1005.5 |
| 20260905105051 | 64 | 73 | 0.0 | 2.6 | 0.00 | 0.00 | 0.00 | 86 | 1005.4 |
| 20260905104552 | 64 | 76 | 0.0 | 0.9 | 0.00 | 0.00 | 0.00 | 85 | 1005.4 |
| 20260905104049 | 64 | 76 | 0.0 | 0.9 | 0.00 | 0.00 | 0.00 | 85 | 1005.3 |
| 20260905103549 | 64 | 76 | 0.0 | 2.6 | 0.00 | 0.00 | 0.00 | 85 | 1005.4 |
| 20260905103149 | 65 | 76 | 0.0 | 0.0 | 0.00 | 0.00 | 0.00 | 85 | 1005.4 |
| 20260905102546 | 65 | 76 | 0.0 | 0.0 | 0.00 | 0.00 | 0.00 | 85 | 1005.1 |
| 20260905102048 | 65 | 76 | 0.0 | 2.6 | 0.00 | 0.00 | 0.00 | 85 | 1004.9 |
| 20260905101546 | 65 | 76 | 0.9 | 2.6 | 0.00 | 0.00 | 0.00 | 84 | 1004.9 |
| 20260905101044 | 65 | 76 | 0.9 | 2.6 | 0.00 | 0.00 | 0.00 | 84 | 1004.9 |
| 20260905100545 | 65 | 76 | 0.0 | 0.0 | 0.00 | 0.00 | 0.00 | 83 | 1004.8 |
| 20260905095542 | 65 | 76 | 0.0 | 2.6 | 0.00 | 0.00 | 0.00 | 81 | 1004.7 |
| 20260905095045 | 66 | 76 | 1.7 | 2.6 | 0.00 | 0.00 | 0.00 | 82 | 1004.4 |
| 20260905094542 | 66 | 76 | 0.0 | 0.0 | 0.00 | 0.00 | 0.00 | 81 | 1004.5 |
| 20260905094040 | 66 | 76 | 0.0 | 0.0 | 0.00 | 0.00 | 0.00 | 82 | 1004.7 |
| 20260905093541 | 66 | 76 | 0.0 | 0.0 | 0.00 | 0.00 | 0.00 | 81 | 1004.7 |
| 20260905093143 | 66 | 76 | 0.0 | 3.5 | 0.00 | 0.00 | 0.00 | 79 | 1004.6 |
| 20260905092541 | 66 | 76 | 0.0 | 3.5 | 0.00 | 0.00 | 0.00 | 79 | 1004.4 |
| 20260905092040 | 67 | 76 | 1.7 | 3.5 | 0.00 | 0.00 | 0.00 | 80 | 1004.3 |
| 20260905091552 | 67 | 76 | 0.9 | 2.6 | 0.00 | 0.00 | 0.00 | 80 | 1004.4 |
| 20260905091039 | 66 | 76 | 1.7 | 3.5 | 0.00 | 0.00 | 0.00 | 79 | 1004.5 |
| 20260905090540 | 66 | 76 | 1.7 | 3.5 | 0.00 | 0.00 | 0.00 | 79 | 1004.3 |
| 20260905090039 | 66 | 77 | 0.9 | 3.5 | 0.00 | 0.00 | 0.00 | 79 | 1004.1 |
| 20260905085539 | 66 | 88 | 0.0 | 0.0 | 0.00 | 0.00 | 0.00 | 78 | 1004.4 |
| 20260905085036 | 67 | 88 | 0.0 | 0.0 | 0.00 | 0.00 | 0.00 | 78 | 1004.1 |
| 20260905084536 | 67 | 88 | 0.0 | 0.0 | 0.00 | 0.00 | 0.00 | 77 | 1004.2 |
| 20260905084036 | 67 | 88 | 0.0 | 2.6 | 0.00 | 0.00 | 0.00 | 77 | 1004.2 |
| 20260905083536 | 67 | 88 | 0.9 | 2.6 | 0.00 | 0.00 | 0.00 | 77 | 1004.3 |
| 20260905083135 | 68 | 88 | 1.7 | 2.6 | 0.00 | 0.00 | 0.00 | 76 | 1004.3 |
| 20260905082538 | 68 | 88 | 0.9 | 2.6 | 0.00 | 0.00 | 0.00 | 77 | 1004.1 |
| 20260905082036 | 68 | 88 | 0.9 | 2.6 | 0.00 | 0.00 | 0.00 | 75 | 1004.3 |
| 20260905081535 | 68 | 88 | 0.0 | 0.0 | 0.00 | 0.00 | 0.00 | 75 | 1004.2 |
| 20260905081034 | 69 | 88 | 0.0 | 0.0 | 0.00 | 0.00 | 0.00 | 75 | 1004.2 |
| 20260905080534 | 69 | 88 | 0.0 | 0.9 | 0.00 | 0.00 | 0.00 | 74 | 1004.2 |
| 20260905080039 | 69 | 88 | 0.0 | 0.9 | 0.00 | 0.00 | 0.00 | 74 | 1004.2 |
| 20260905075534 | 69 | 86 | 0.0 | 0.0 | 0.00 | 0.00 | 0.00 | 74 | 1004.3 |
| 20260905075034 | 69 | 86 | 0.0 | 1.7 | 0.00 | 0.00 | 0.00 | 74 | 1004.2 |
| 20260905074544 | 69 | 86 | 0.0 | 1.7 | 0.00 | 0.00 | 0.00 | 73 | 1004.3 |
| 20260905074033 | 70 | 86 | 0.0 | 2.6 | 0.00 | 0.00 | 0.00 | 73 | 1004.3 |
| 20260905073533 | 69 | 85 | 0.9 | 2.6 | 0.00 | 0.00 | 0.00 | 74 | 1004.3 |
| 20260905073133 | 69 | 69 | 0.0 | 1.7 | 0.00 | 0.00 | 0.00 | 73 | 1004.4 |
| 20260905072537 | 69 | 69 | 0.0 | 1.7 | 0.00 | 0.00 | 0.00 | 73 | 1004.2 |
| 20260905072035 | 69 | 69 | 0.0 | 2.6 | 0.00 | 0.00 | 0.00 | 73 | 1004.4 |
| 20260905071533 | 69 | 58 | 0.0 | 3.5 | 0.00 | 0.00 | 0.00 | 72 | 1004.5 |
| 20260905071034 | 69 | 58 | 1.7 | 3.5 | 0.00 | 0.00 | 0.00 | 72 | 1004.5 |
| 20260905070532 | 69 | 68 | 1.7 | 3.5 | 0.00 | 0.00 | 0.00 | 72 | 1004.3 |
| 20260905070032 | 69 | 76 | 0.9 | 2.6 | 0.00 | 0.00 | 0.00 | 71 | 1004.5 |
| 20260905065530 | 70 | 76 | 0.9 | 2.6 | 0.00 | 0.00 | 0.00 | 70 | 1004.5 |
| 20260905065034 | 70 | 76 | 1.7 | 2.6 | 0.00 | 0.00 | 0.00 | 71 | 1004.5 |
| 20260905064529 | 70 | 76 | 1.7 | 3.5 | 0.00 | 0.00 | 0.00 | 70 | 1004.4 |
| 20260905064028 | 70 | 76 | 2.6 | 3.5 | 0.00 | 0.00 | 0.00 | 69 | 1004.4 |
| 20260905063526 | 71 | 76 | 1.7 | 3.5 | 0.00 | 0.00 | 0.00 | 69 | 1004.4 |
| 20260905063127 | 72 | 76 | 1.7 | 3.5 | 0.00 | 0.00 | 0.00 | 67 | 1004.5 |
| 20260905062523 | 72 | 76 | 0.9 | 3.5 | 0.00 | 0.00 | 0.00 | 67 | 1004.4 |
| 20260905062026 | 72 | 76 | 1.7 | 3.5 | 0.00 | 0.00 | 0.00 | 67 | 1004.3 |
| 20260905061524 | 72 | 76 | 0.9 | 2.6 | 0.00 | 0.00 | 0.00 | 67 | 1004.4 |
| 20260905061023 | 72 | 76 | 1.7 | 3.5 | 0.00 | 0.00 | 0.00 | 67 | 1004.3 |
| 20260905060523 | 72 | 76 | 1.7 | 3.5 | 0.00 | 0.00 | 0.00 | 68 | 1004.4 |
| 20260905060024 | 72 | 82 | 0.0 | 2.6 | 0.00 | 0.00 | 0.00 | 67 | 1004.3 |
| 20260905055522 | 72 | 82 | 0.9 | 2.6 | 0.00 | 0.00 | 0.00 | 67 | 1004.4 |
| 20260905055023 | 72 | 86 | 1.7 | 3.5 | 0.00 | 0.00 | 0.00 | 66 | 1004.3 |
| 20260905054522 | 73 | 86 | 0.9 | 3.5 | 0.00 | 0.00 | 0.00 | 64 | 1004.3 |
| 20260905054022 | 75 | 89 | 2.6 | 3.5 | 0.00 | 0.00 | 0.00 | 62 | 1004.2 |
| 20260905053523 | 75 | 106 | 0.0 | 3.5 | 0.00 | 0.00 | 0.00 | 61 | 1004.2 |
| 20260905053123 | 76 | 106 | 0.0 | 2.6 | 0.00 | 0.00 | 0.00 | 60 | 1004.1 |
| 20260905052521 | 76 | 106 | 0.0 | 3.5 | 0.00 | 0.00 | 0.00 | 60 | 1004.1 |
| 20260905052020 | 76 | 106 | 0.9 | 5.2 | 0.00 | 0.00 | 0.00 | 59 | 1004.2 |
| 20260905051520 | 77 | 107 | 1.7 | 5.2 | 0.00 | 0.00 | 0.00 | 59 | 1004.0 |
| 20260905051019 | 77 | 114 | 1.7 | 3.5 | 0.00 | 0.00 | 0.00 | 60 | 1004.1 |
| 20260905050523 | 77 | 115 | 1.7 | 3.5 | 0.00 | 0.00 | 0.00 | 59 | 1004.2 |
| 20260905050020 | 77 | 111 | 1.7 | 5.2 | 0.00 | 0.00 | 0.00 | 59 | 1004.2 |
| 20260905045523 | 78 | 119 | 0.9 | 7.0 | 0.00 | 0.00 | 0.00 | 58 | 1004.2 |
| 20260905045019 | 78 | 112 | 2.6 | 7.0 | 0.00 | 0.00 | 0.00 | 58 | 1004.2 |
| 20260905044522 | 78 | 107 | 1.7 | 7.0 | 0.00 | 0.00 | 0.00 | 57 | 1004.3 |
| 20260905044021 | 78 | 97 | 2.6 | 6.1 | 0.00 | 0.00 | 0.00 | 58 | 1004.3 |
| 20260905043519 | 78 | 125 | 1.7 | 6.1 | 0.00 | 0.00 | 0.00 | 57 | 1004.4 |
| 20260905043119 | 79 | 101 | 3.5 | 7.0 | 0.00 | 0.00 | 0.00 | 56 | 1004.3 |
| 20260905042520 | 79 | 108 | 3.5 | 7.0 | 0.00 | 0.00 | 0.00 | 56 | 1004.3 |
| 20260905042019 | 79 | 113 | 1.7 | 7.0 | 0.00 | 0.00 | 0.00 | 56 | 1004.3 |
| 20260905041520 | 80 | 117 | 2.6 | 7.0 | 0.00 | 0.00 | 0.00 | 55 | 1004.3 |
| 20260905041019 | 80 | 103 | 3.5 | 6.1 | 0.00 | 0.00 | 0.00 | 54 | 1004.1 |
| 20260905040518 | 81 | 111 | 2.6 | 7.8 | 0.00 | 0.00 | 0.00 | 53 | 1004.1 |
| 20260905040023 | 81 | 105 | 3.5 | 9.6 | 0.00 | 0.00 | 0.00 | 53 | 1003.9 |
| 20260905035518 | 82 | 122 | 6.1 | 13.0 | 0.00 | 0.00 | 0.00 | 53 | 1003.9 |
| 20260905035017 | 82 | 126 | 8.7 | 12.2 | 0.00 | 0.00 | 0.00 | 52 | 1003.9 |
| 20260905034521 | 81 | 133 | 7.8 | 13.0 | 0.00 | 0.00 | 0.00 | 53 | 1003.7 |
| 20260905034017 | 81 | 119 | 7.0 | 13.0 | 0.00 | 0.00 | 0.00 | 54 | 1003.7 |
| 20260905033517 | 81 | 130 | 5.2 | 8.7 | 0.00 | 0.00 | 0.00 | 54 | 1003.7 |
| 20260905033117 | 82 | 135 | 4.3 | 10.4 | 0.00 | 0.00 | 0.00 | 54 | 1003.7 |
| 20260905032520 | 82 | 105 | 5.2 | 10.4 | 0.00 | 0.00 | 0.00 | 54 | 1003.7 |
| 20260905032018 | 82 | 108 | 6.1 | 12.2 | 0.00 | 0.00 | 0.00 | 53 | 1003.7 |
| 20260905031524 | 83 | 122 | 5.2 | 12.2 | 0.00 | 0.00 | 0.00 | 53 | 1003.5 |
| 20260905031020 | 83 | 99 | 5.2 | 10.4 | 0.00 | 0.00 | 0.00 | 53 | 1003.6 |
| 20260905030521 | 83 | 109 | 4.3 | 8.7 | 0.00 | 0.00 | 0.00 | 53 | 1003.6 |
| 20260905030018 | 83 | 101 | 1.7 | 6.1 | 0.00 | 0.00 | 0.00 | 53 | 1003.6 |
| 20260905025517 | 83 | 44 | 1.7 | 7.0 | 0.00 | 0.00 | 0.00 | 53 | 1003.8 |